This is the latest recevied weather packets stored in our database for station/object KB0BS-13. If no packets are shown the sender has not sent any weather packets the latest 10 day(s).
| Time | Temp. | Humidity | Pressure | Rain* | Wind** | Luminosity | Snow |
|---|---|---|---|---|---|---|---|
| 1777169708 | 3.89° C | 99% | 1020.8 hPa | 0 mm | - | 0 W/m² | - |
| 1777169404 | 4.44° C | 99% | 1020.7 hPa | 0 mm | - | 0 W/m² | - |
| 1777169103 | 4.44° C | 99% | 1020.8 hPa | 0 mm | - | 0 W/m² | - |
| 1777168799 | 4.44° C | 99% | 1020.4 hPa | 0 mm | - | 0 W/m² | - |
| 1777168495 | 4.44° C | 99% | 1020.4 hPa | 0 mm | - | 0 W/m² | - |
| 1777168193 | 4.44° C | 99% | 1020.2 hPa | 0 mm | - | 0 W/m² | - |
| 1777167891 | 4.44° C | 99% | 1020.3 hPa | 0 mm | - | 0 W/m² | - |
| 1777167585 | 4.44° C | 99% | 1020.2 hPa | 0 mm | - | 0 W/m² | - |
| 1777167281 | 4.44° C | 99% | 1020.4 hPa | 0 mm | - | 0 W/m² | - |
| 1777166977 | 5° C | 98% | 1020.6 hPa | 0 mm | - | 0 W/m² | - |
| 1777166672 | 5° C | 98% | 1020.5 hPa | 0 mm | - | 0 W/m² | - |
| 1777166368 | 5° C | 98% | 1020.3 hPa | 0 mm | - | 0 W/m² | - |
| 1777166064 | 5.56° C | 97% | 1020.1 hPa | 0 mm | - | 0 W/m² | - |
| 1777165762 | 5.56° C | 97% | 1020.4 hPa | 0 mm | - | 0 W/m² | - |
| 1777165459 | 6.11° C | 96% | 1020.3 hPa | 0 mm | - | 0 W/m² | - |
| 1777165154 | 6.11° C | 96% | 1020.1 hPa | 0 mm | - | 0 W/m² | - |
| 1777164850 | 6.67° C | 96% | 1020.1 hPa | 0 mm | - | 0 W/m² | - |
| 1777164548 | 6.67° C | 96% | 1020.2 hPa | 0 mm | - | 1 W/m² | - |
| 1777164243 | 6.67° C | 95% | 1020.2 hPa | 0 mm | - | 1 W/m² | - |
| 1777163938 | 7.22° C | 93% | 1020 hPa | 0 mm | - | 2 W/m² | - |
| 1777163637 | 7.22° C | 93% | 1020 hPa | 0 mm | - | 4 W/m² | - |
| 1777163333 | 7.78° C | 92% | 1020.1 hPa | 0 mm | - | 6 W/m² | - |
| 1777163029 | 7.78° C | 92% | 1020.3 hPa | 0 mm | - | 7 W/m² | - |
| 1777162725 | 7.78° C | 91% | 1020.1 hPa | 0 mm | - | 13 W/m² | - |
| 1777162419 | 7.78° C | 91% | 1020.2 hPa | 0 mm | - | 18 W/m² | - |
* Rain latest hour (hover to see other rain measurements)
** Current wind speed in m/s (hover to see current wind gust speed)